Location: Antin
(43.3330°N, 0.2804°E)
Time: 17:21:34
(UTC+00:00)

SME Rocket - Pass Details

Date: 17 December 2023
Orbit: 550 x 2645 km, 99.9° (Epoch: 20 February)

Event Time Altitude Azimuth Distance (km) Brightness Sun altitude
Rises 18:52:37 0° 170° (S) 3,708 7.0 -26.0°
Reaches altitude 10° 18:54:41 10° 172° (S) 2,960 6.5 -26.4°
Maximum altitude 19:01:35 75° 258° (WSW) 1,537 5.0 -27.6°
Drops below altitude 10° 19:12:26 10° 343° (NNW) 4,542 7.5 -29.6°
Sets 19:16:20 0° 346° (NNW) 5,806 8.1 -30.3°
